Sigfox identifier Datetime Temperature Humidity SNR
002EEE26 2019-04-23 15:05:59 15.7 32 20.5
002EEE26 2019-04-23 14:31:38 15.7 32 20.1
002EEE26 2019-04-23 13:57:18 15.5 32 19.8
002EEE26 2019-04-23 13:22:58 15.5 32 19.3
002EEE26 2019-04-23 12:48:37 15.5 32 19
002EEE26 2019-04-23 12:14:16 15.4 32 19
002EEE26 2019-04-23 11:39:56 15.4 32 18.5
002EEE26 2019-04-23 11:05:36 15.3 32 17.8
002EEE26 2019-04-23 10:31:18 15.3 32 17.4
002EEE26 2019-04-23 09:56:58 15.3 31 16.1
002EEE26 2019-04-23 09:22:38 15.3 31 15.7
002EEE26 2019-04-23 08:48:18 15.3 31 14.4
002EEE26 2019-04-23 08:13:58 15.3 31 12.5
002EEE26 2019-04-23 07:39:38 15.3 31 12.6
002EEE26 2019-04-23 07:05:18 15.3 31 12.7
002EEE26 2019-04-23 06:30:58 15.3 31 12.5
002EEE26 2019-04-23 05:56:39 15.3 31 12.5
002EEE26 2019-04-23 05:22:20 15.3 31 12.5
002EEE26 2019-04-23 04:48:05 15.3 31 12.3
002EEE26 2019-04-23 04:13:44 15.3 31 12.3
002EEE26 2019-04-23 03:39:23 15.3 31 12.6
002EEE26 2019-04-23 03:05:03 15.3 31 12.8
002EEE26 2019-04-23 02:30:42 15.4 31 12.8
002EEE26 2019-04-23 01:56:22 15.5 31 12.8
002EEE26 2019-04-23 01:22:02 15.4 31 12.7
002EEE26 2019-04-23 00:47:42 15.5 31 12.6
002EEE26 2019-04-23 00:13:23 15.5 31 12.9
002EEE26 2019-04-22 23:39:04 15.5 31 12.9
002EEE26 2019-04-22 23:04:44 15.5 31 13
002EEE26 2019-04-22 22:30:26 15.5 31 13
002EEE26 2019-04-22 21:56:06 15.5 31 13.1
002EEE26 2019-04-22 21:21:46 15.5 31 13.3
002EEE26 2019-04-22 20:47:27 15.5 31 13.6
002EEE26 2019-04-22 20:13:06 15.5 31 13.5
002EEE26 2019-04-22 19:38:47 15.5 31 13.4
002EEE26 2019-04-22 19:04:27 15.5 31 13.5
002EEE26 2019-04-22 18:30:08 15.5 31 13.5
002EEE26 2019-04-22 17:55:48 15.5 31 13.4
002EEE26 2019-04-22 17:21:27 15.5 31 13.4
002EEE26 2019-04-22 16:47:08 15.5 31 13.5
002EEE26 2019-04-22 16:12:49 15.5 31 13.4
002EEE26 2019-04-22 15:38:30 15.5 31 13.5
002EEE26 2019-04-22 15:04:11 15.5 31 13.5
002EEE26 2019-04-22 14:29:49 15.5 31 13.6
002EEE26 2019-04-22 13:55:30 15.3 31 13.6
002EEE26 2019-04-22 13:21:11 15.5 31 13.4
002EEE26 2019-04-22 12:46:54 15.3 31 13.3
002EEE26 2019-04-22 12:12:33 15.3 31 13.3
002EEE26 2019-04-22 11:38:15 15.3 31 13.3
002EEE26 2019-04-22 11:03:57 15.3 31 13.4
002EEE26 2019-04-22 10:29:38 15.3 31 13.4
002EEE26 2019-04-22 09:55:20 15.3 30 13.1
002EEE26 2019-04-22 09:21:01 15.3 30 13
002EEE26 2019-04-22 08:46:43 15.3 30 13
002EEE26 2019-04-22 08:12:24 15.2 30 13
002EEE26 2019-04-22 07:38:05 15.3 30 12.8
002EEE26 2019-04-22 07:03:46 15.3 30 12.3
002EEE26 2019-04-22 06:29:28 15.3 30 12
002EEE26 2019-04-22 05:55:09 15.3 30 12
002EEE26 2019-04-22 05:20:51 15.3 30 12
002EEE26 2019-04-22 04:46:31 15.3 30 12
002EEE26 2019-04-22 04:12:11 15.3 30 11.8
002EEE26 2019-04-22 03:37:51 15.2 30 11.8
002EEE26 2019-04-22 03:03:33 15.2 30 11.8
002EEE26 2019-04-22 02:29:13 15.2 30 11.6
002EEE26 2019-04-22 01:54:55 15.3 30 11.8
002EEE26 2019-04-22 01:20:34 15.2 30 11.9
002EEE26 2019-04-22 00:46:15 15.2 30 12
002EEE26 2019-04-22 00:11:56 15.3 30 12.2
002EEE26 2019-04-21 23:37:39 15.2 30 12.3
002EEE26 2019-04-21 23:03:20 15.2 30 12.7
002EEE26 2019-04-21 22:29:02 15.2 30 13.3
002EEE26 2019-04-21 21:54:44 15.3 30 13.7
002EEE26 2019-04-21 21:20:27 15.2 30 14
002EEE26 2019-04-21 20:46:10 15.2 30 13.9
002EEE26 2019-04-21 20:11:53 15.2 30 13.9
002EEE26 2019-04-21 19:37:35 15.2 30 14
002EEE26 2019-04-21 19:03:18 15.2 30 14.1
002EEE26 2019-04-21 18:29:00 15.2 30 14.2
002EEE26 2019-04-21 17:54:42 15.2 30 14.2
002EEE26 2019-04-21 17:20:24 15.1 30 14.3
002EEE26 2019-04-21 16:46:05 15.1 30 14.5
002EEE26 2019-04-21 16:11:47 15.2 30 14.5
002EEE26 2019-04-21 15:37:28 15.2 30 14.6
002EEE26 2019-04-21 15:03:10 15.1 30 14.6
002EEE26 2019-04-21 14:28:51 15.2 30 14.6
002EEE26 2019-04-21 13:54:34 15.1 30 14.7
002EEE26 2019-04-21 13:20:16 15.2 29 14.7
002EEE26 2019-04-21 12:45:56 15.2 29 14.7
002EEE26 2019-04-21 12:11:42 15.2 29 14.8
002EEE26 2019-04-21 11:37:20 15.2 29 14.8
002EEE26 2019-04-21 11:03:02 15.2 29 14.7
002EEE26 2019-04-21 10:28:45 15.2 29 14.6
002EEE26 2019-04-21 09:54:24 15.3 29 14.4
002EEE26 2019-04-21 09:20:06 15.3 29 14.4
002EEE26 2019-04-21 08:45:48 15.3 29 14.2
002EEE26 2019-04-21 08:11:29 15.3 29 13.8
002EEE26 2019-04-21 07:37:10 15.3 29 13.4
002EEE26 2019-04-21 07:02:51 15.3 29 13.1
002EEE26 2019-04-21 06:28:33 15.3 29 13.2
002EEE26 2019-04-21 05:54:14 15.3 29 13.3
002EEE26 2019-04-21 05:19:56 15.3 29 13.3
002EEE26 2019-04-21 04:45:37 15.3 29 13.2
002EEE26 2019-04-21 04:11:18 15.3 29 13.1
002EEE26 2019-04-21 03:36:58 15.3 29 12.9
002EEE26 2019-04-21 03:02:39 15.3 29 12.8
002EEE26 2019-04-21 02:28:20 15.3 29 12.7
002EEE26 2019-04-21 01:54:01 15.3 29 12.6
002EEE26 2019-04-21 01:19:43 15.3 29 12.4
002EEE26 2019-04-21 00:45:23 15.3 29 12.4
002EEE26 2019-04-21 00:11:05 15.3 29 12.5
002EEE26 2019-04-20 23:36:44 15.3 29 12.5
002EEE26 2019-04-20 23:02:25 15.3 29 12.5
002EEE26 2019-04-20 22:28:06 15.3 29 13.2
002EEE26 2019-04-20 21:53:47 15.3 29 13.1
002EEE26 2019-04-20 21:19:28 15.3 29 13.1
002EEE26 2019-04-20 20:45:09 15.3 29 13.3
002EEE26 2019-04-20 20:10:52 15.3 29 13.5
002EEE26 2019-04-20 19:36:30 15.3 29 13.6
002EEE26 2019-04-20 18:27:53 15.3 29 13.7
002EEE26 2019-04-20 17:53:32 15.3 29 13.6
002EEE26 2019-04-20 17:19:14 15.3 28 13.6
002EEE26 2019-04-20 16:44:53 15.3 28 13.6
002EEE26 2019-04-20 16:10:33 15.3 28 13.5
002EEE26 2019-04-20 15:36:13 15.3 28 13.5
002EEE26 2019-04-20 15:01:54 15.3 28 13.5
002EEE26 2019-04-20 14:27:31 15.3 28 13.5
002EEE26 2019-04-20 13:53:10 15.3 28 13.5
002EEE26 2019-04-20 13:18:49 15.3 28 13.5
002EEE26 2019-04-20 12:44:30 15.3 28 13.5
002EEE26 2019-04-20 12:10:11 15.3 28 13.5
002EEE26 2019-04-20 11:35:51 15.3 28 13.5
002EEE26 2019-04-20 11:01:32 15.5 28 13.6
002EEE26 2019-04-20 10:27:13 15.4 28 13.5
002EEE26 2019-04-20 09:52:50 15.5 28 13.5
002EEE26 2019-04-20 09:18:29 15.5 28 13.6
002EEE26 2019-04-20 08:44:09 15.5 28 13.4
002EEE26 2019-04-20 08:09:48 15.5 28 13.4
002EEE26 2019-04-20 07:35:27 15.5 28 12.7
002EEE26 2019-04-20 07:01:05 15.5 28 12.7
002EEE26 2019-04-20 06:26:44 15.5 28 12.6
002EEE26 2019-04-20 05:52:23 15.5 28 12.6
002EEE26 2019-04-20 05:18:02 15.5 28 12.5
002EEE26 2019-04-20 04:43:43 15.5 28 12.5
002EEE26 2019-04-20 04:09:23 15.6 28 12.5
002EEE26 2019-04-20 03:35:01 15.6 28 12.7
002EEE26 2019-04-20 03:00:39 15.7 28 12.6
002EEE26 2019-04-20 02:26:18 15.7 28 12.6
002EEE26 2019-04-20 01:52:00 15.7 28 12.7
002EEE26 2019-04-20 01:17:39 15.7 28 12.7
002EEE26 2019-04-20 00:43:21 15.7 28 12.7
002EEE26 2019-04-20 00:08:58 15.7 28 12.6
002EEE26 2019-04-19 23:34:37 15.7 28 12.7
002EEE26 2019-04-19 23:00:17 15.7 28 12.9
002EEE26 2019-04-19 22:25:56 15.9 28 13.6
002EEE26 2019-04-19 21:51:35 15.9 27 13.9
002EEE26 2019-04-19 21:17:16 15.9 27 14.1
002EEE26 2019-04-19 20:08:36 15.9 27 14.2
002EEE26 2019-04-19 19:34:16 15.9 27 14.3
002EEE26 2019-04-19 18:59:54 15.9 27 14.5
002EEE26 2019-04-19 18:25:34 15.8 27 14.5
002EEE26 2019-04-19 17:51:13 15.8 27 14.7
002EEE26 2019-04-19 17:16:54 15.8 27 14.7
002EEE26 2019-04-19 16:42:31 15.7 27 14.8
002EEE26 2019-04-19 16:08:11 15.7 27 14.8
002EEE26 2019-04-19 15:33:51 15.7 27 14.8
002EEE26 2019-04-19 14:59:30 15.7 27 14.7
002EEE26 2019-04-19 14:25:10 15.7 27 14.7
002EEE26 2019-04-19 13:50:50 15.7 27 14.7
002EEE26 2019-04-19 13:16:31 15.7 27 14.6
002EEE26 2019-04-19 12:42:10 15.7 27 14.5
002EEE26 2019-04-19 12:07:50 15.7 27 14.5
002EEE26 2019-04-19 11:33:31 15.7 27 14.5
002EEE26 2019-04-19 10:59:08 15.7 27 14.5
002EEE26 2019-04-19 10:24:48 15.7 27 14.4
002EEE26 2019-04-19 09:50:28 15.7 27 14.3
002EEE26 2019-04-19 09:16:07 15.7 27 16.4
002EEE26 2019-04-19 08:41:48 15.7 26 17.5
002EEE26 2019-04-19 08:07:30 15.7 26 18.3
002EEE26 2019-04-19 07:33:08 15.7 26 18.9
002EEE26 2019-04-19 06:58:49 15.7 26 19.5
002EEE26 2019-04-19 06:24:30 15.7 26 19.9
002EEE26 2019-04-19 05:50:11 15.8 26 20.3
002EEE26 2019-04-19 05:15:52 15.9 26 20.7
002EEE26 2019-04-19 04:41:33 15.9 26 21.3
002EEE26 2019-04-19 04:07:13 15.9 26 21.9
002EEE26 2019-04-19 03:32:54 15.9 26 22.1
002EEE26 2019-04-19 02:58:35 15.9 26 22.2
002EEE26 2019-04-19 02:24:15 15.9 26 22.3
002EEE26 2019-04-19 01:49:54 16.1 26 22.5
002EEE26 2019-04-19 01:15:34 16.1 26 22.8
002EEE26 2019-04-19 00:41:14 16.1 26 23
002EEE26 2019-04-19 00:06:53 16.1 26 23.2
002EEE26 2019-04-18 23:32:32 16.2 26 23.3
002EEE26 2019-04-18 22:58:13 16.2 26 23.5
002EEE26 2019-04-18 22:23:51 16.3 26 23.6
002EEE26 2019-04-18 21:49:30 16.3 26 23.8
002EEE26 2019-04-18 21:15:10 16.3 26 23.8
002EEE26 2019-04-18 20:40:52 16.3 26 23.9
002EEE26 2019-04-18 20:06:31 16.3 26 23.9
002EEE26 2019-04-18 19:32:11 16.3 26 23.9
002EEE26 2019-04-18 18:57:50 16.3 26 23.7
002EEE26 2019-04-18 18:23:30 16.3 26 23.4
002EEE26 2019-04-18 17:49:09 16.2 26 23.2
002EEE26 2019-04-18 17:14:49 16.1 26 23
002EEE26 2019-04-18 16:40:28 16.1 26 22.8
002EEE26 2019-04-18 16:06:09 16.1 26 22.6
002EEE26 2019-04-18 15:31:49 16.1 26 22.4
002EEE26 2019-04-18 14:57:29 16.1 25 22.1
002EEE26 2019-04-18 14:23:09 16.1 25 21.6
002EEE26 2019-04-18 13:48:48 16 25 20.9
002EEE26 2019-04-18 13:14:28 16 25 20.8
002EEE26 2019-04-18 12:40:06 16 25 21
002EEE26 2019-04-18 12:05:46 15.9 25 22.1
002EEE26 2019-04-18 11:31:26 16.1 25 22.1
002EEE26 2019-04-18 10:57:07 16 25 21.9
002EEE26 2019-04-18 10:22:48 16 25 21.8
002EEE26 2019-04-18 09:48:29 15.9 25 21.7
002EEE26 2019-04-18 09:14:09 16 24 21.6
002EEE26 2019-04-18 08:39:49 16.1 24 21.7
002EEE26 2019-04-18 08:05:30 16.1 25 21.8
002EEE26 2019-04-18 07:31:10 16.1 24 21.7
002EEE26 2019-04-18 06:56:50 16.1 24 21.9
002EEE26 2019-04-18 06:22:31 16.1 24 21.8
002EEE26 2019-04-18 05:48:11 16.1 24 22.1
002EEE26 2019-04-18 05:13:52 16.1 24 22.2
002EEE26 2019-04-18 04:39:32 16.1 24 22.2
002EEE26 2019-04-18 04:05:12 16.2 24 22.1
002EEE26 2019-04-18 03:30:53 16.2 24 22.1
002EEE26 2019-04-18 02:56:34 16.3 24 22.1
002EEE26 2019-04-18 02:22:15 16.3 24 22.2
002EEE26 2019-04-18 01:47:56 16.3 24 22.1
002EEE26 2019-04-18 01:13:37 16.5 24 22.2
002EEE26 2019-04-18 00:39:16 16.5 24 22.2
002EEE26 2019-04-18 00:04:57 16.5 24 22.2
002EEE26 2019-04-17 23:30:37 16.6 24 22.2
002EEE26 2019-04-17 22:56:17 16.5 24 22.1
002EEE26 2019-04-17 22:21:58 16.6 24 22
002EEE26 2019-04-17 21:47:38 16.6 24 20.8
002EEE26 2019-04-17 21:13:19 16.5 23 20.6
002EEE26 2019-04-17 20:39:01 16.6 23 20.5
002EEE26 2019-04-17 20:04:43 16.7 23 20.3
002EEE26 2019-04-17 19:30:24 16.7 23 20.2
002EEE26 2019-04-17 18:56:05 16.7 23 20.1
002EEE26 2019-04-17 18:21:45 16.8 23 19.8
002EEE26 2019-04-17 17:47:27 16.7 23 19.5
002EEE26 2019-04-17 17:13:09 16.8 23 19.3
002EEE26 2019-04-17 16:38:50 16.8 23 19
002EEE26 2019-04-17 16:04:35 16.8 23 19.2
002EEE26 2019-04-17 15:30:13 16.9 23 18.9
002EEE26 2019-04-17 14:55:55 17 22 18.7
002EEE26 2019-04-17 14:21:36 17 22 18.9
002EEE26 2019-04-17 13:47:18 17.2 23 19.1
002EEE26 2019-04-17 13:12:59 17.2 23 19.1
002EEE26 2019-04-17 12:38:41 17.2 23 19.1
002EEE26 2019-04-17 12:04:21 17.2 22 18.8
002EEE26 2019-04-17 11:30:02 17.2 22 18.9
002EEE26 2019-04-17 10:55:45 17.2 22 18.8
002EEE26 2019-04-17 10:21:26 17.3 22 18.7
002EEE26 2019-04-17 09:47:08 17.4 22 18.7
002EEE26 2019-04-17 09:12:51 17.4 22 18.6
002EEE26 2019-04-17 08:38:33 17.6 22 18.5
002EEE26 2019-04-17 08:04:14 17.6 22 18.7
002EEE26 2019-04-17 07:29:54 17.7 22 18.5
002EEE26 2019-04-17 06:55:36 17.8 22 18.4
002EEE26 2019-04-17 06:21:18 17.9 22 18.5
002EEE26 2019-04-17 05:46:59 18 22 18.7
002EEE26 2019-04-17 05:12:41 18 22 18.8
002EEE26 2019-04-17 04:38:22 18 21 18.5
002EEE26 2019-04-17 04:04:02 18.2 21 18.5
002EEE26 2019-04-17 03:29:44 18.3 21 18.4
002EEE26 2019-04-17 02:55:25 18.3 21 18.2
002EEE26 2019-04-17 02:21:05 18.4 21 18
002EEE26 2019-04-17 01:46:45 18.5 21 17.6
002EEE26 2019-04-17 01:12:26 18.4 21 17.3
002EEE26 2019-04-17 00:38:06 18.5 21 17.1
002EEE26 2019-04-17 00:03:48 18.6 21 16.8
002EEE26 2019-04-16 23:29:28 18.7 21 16.5
002EEE26 2019-04-16 22:55:09 18.8 20 16.3
002EEE26 2019-04-16 22:20:50 18.9 20 16.3
002EEE26 2019-04-16 21:46:29 19.1 21 16.3
002EEE26 2019-04-16 21:12:11 19.1 21 16.4
002EEE26 2019-04-16 20:37:52 19.3 21 16.3
002EEE26 2019-04-16 20:03:32 19.3 21 16.2
002EEE26 2019-04-16 19:29:14 19.4 21 16.2
002EEE26 2019-04-16 18:54:53 19.5 21 16.2
002EEE26 2019-04-16 18:20:34 19.6 20 16.1
002EEE26 2019-04-16 17:46:15 19.8 20 15.7
002EEE26 2019-04-16 17:11:56 19.9 20 15.7
002EEE26 2019-04-16 16:37:35 20 20 15.6
002EEE26 2019-04-16 16:03:17 20.2 20 15
002EEE26 2019-04-16 15:28:59 20.4 20 13.8
002EEE26 2019-04-16 14:54:39 20.6 21 13.4
002EEE26 2019-04-16 14:20:22 20.7 21 13.3
002EEE26 2019-04-16 13:46:01 20.8 22 12.8
002EEE26 2019-04-16 13:11:39 20.7 21 12.8
002EEE26 2019-04-16 12:37:21 20.8 21 12.9
002EEE26 2019-04-16 11:28:40 20.7 21 13.3
002EEE26 2019-04-16 10:54:22 20.6 21 13.3
002EEE26 2019-04-16 10:20:01 20.6 21 13.3
002EEE26 2019-04-16 09:45:42 20.6 21 12.7
002EEE26 2019-04-16 09:11:25 20.6 21 12.6
002EEE26 2019-04-16 08:37:06 20.6 21 12.6
002EEE26 2019-04-16 08:02:45 20.6 21 12.6
002EEE26 2019-04-16 07:28:27 20.6 21 12.3
002EEE26 2019-04-16 06:54:06 20.6 21 12.3
002EEE26 2019-04-16 06:19:47 20.7 21 12.1
002EEE26 2019-04-16 05:45:26 20.6 21 12.3
002EEE26 2019-04-16 05:11:09 20.6 21 12.5
002EEE26 2019-04-16 04:36:48 20.6 21 12.4
002EEE26 2019-04-16 04:02:28 20.6 20 12.4
002EEE26 2019-04-16 03:28:08 20.7 20 12.4
002EEE26 2019-04-16 02:53:49 20.7 20 13.3
002EEE26 2019-04-16 02:19:30 20.6 20 13.3
002EEE26 2019-04-16 01:45:10 20.8 20 13.1
002EEE26 2019-04-16 01:10:50 20.8 20 14.4
002EEE26 2019-04-16 00:36:30 20.8 20 15.4
002EEE26 2019-04-16 00:02:15 20.7 20 16.3
002EEE26 2019-04-15 23:27:53 20.8 20 16.8
002EEE26 2019-04-15 22:53:33 20.9 20 17.9
002EEE26 2019-04-15 22:19:14 20.9 20 18.7
002EEE26 2019-04-15 21:44:53 20.8 20 19.8
002EEE26 2019-04-15 21:10:33 20.8 19 20.1
002EEE26 2019-04-15 20:36:15 20.9 19 20.4
002EEE26 2019-04-15 20:01:53 20.9 19 20.7
002EEE26 2019-04-15 19:27:33 21 19 21.1
002EEE26 2019-04-15 18:53:14 21 19 21.5
002EEE26 2019-04-15 18:18:53 21 19 21.8
002EEE26 2019-04-15 17:44:33 21.1 19 22
002EEE26 2019-04-15 17:10:16 21.3 19 22.2
002EEE26 2019-04-15 16:35:53 21.3 19 22.5
002EEE26 2019-04-15 16:01:33 21.4 18 22.7
002EEE26 2019-04-15 15:27:15 21.4 18 22.9
002EEE26 2019-04-15 14:52:54 21.6 18 23.7
002EEE26 2019-04-15 14:18:34 21.7 18 23.9
002EEE26 2019-04-15 13:44:13 21.9 18 24
002EEE26 2019-04-15 13:09:54 21.9 18 24.2
002EEE26 2019-04-15 12:35:39 22.1 18 24.4
002EEE26 2019-04-15 12:01:15 22.1 15 24.9
002EEE26 2019-04-15 11:26:55 22.1 16 25
002EEE26 2019-04-15 10:52:36 22.1 16 25.1
002EEE26 2019-04-15 10:18:17 22 16 25.1
002EEE26 2019-04-15 09:43:59 21.9 17 25.2
002EEE26 2019-04-15 09:09:40 21.9 17 25.1
002EEE26 2019-04-15 08:35:20 21.7 17 25.2
002EEE26 2019-04-15 08:01:02 21.7 16 25
002EEE26 2019-04-15 07:26:43 21.7 17 25.1
002EEE26 2019-04-15 06:52:23 21.7 17 25.1
002EEE26 2019-04-15 06:18:04 21.7 17 25
002EEE26 2019-04-15 05:43:45 21.6 17 25
002EEE26 2019-04-15 05:09:25 21.6 17 25.2
002EEE26 2019-04-15 04:35:06 21.6 17 25.2
002EEE26 2019-04-15 04:00:47 21.7 17 25.1
002EEE26 2019-04-15 03:26:27 21.7 17 25.1
002EEE26 2019-04-15 02:52:07 21.7 17 25.2
002EEE26 2019-04-15 02:17:48 21.7 17 25.2
002EEE26 2019-04-15 01:43:28 21.6 17 25.2
002EEE26 2019-04-15 01:09:09 21.5 17 25.3
002EEE26 2019-04-15 00:34:50 21.6 17 24.8
002EEE26 2019-04-15 00:00:31 21.5 17 24.8
002EEE26 2019-04-14 23:26:13 21.5 17 24.8
002EEE26 2019-04-14 22:51:54 21.6 17 24.8
002EEE26 2019-04-14 22:17:36 21.7 17 24.8
002EEE26 2019-04-14 21:43:18 21.7 18 24.4
002EEE26 2019-04-14 21:09:00 21.7 18 24.3
002EEE26 2019-04-14 20:34:43 21.7 18 24.3
002EEE26 2019-04-14 20:00:24 21.8 18 24.2
002EEE26 2019-04-14 19:26:06 21.8 18 24.2
002EEE26 2019-04-14 18:51:48 21.8 18 24.3
002EEE26 2019-04-14 18:17:29 21.7 18 24.4
002EEE26 2019-04-14 17:43:09 21.7 18 24.5
002EEE26 2019-04-14 17:08:50 21.7 18 24.4
002EEE26 2019-04-14 16:34:31 21.7 18 24.5
002EEE26 2019-04-14 16:00:13 21.7 18 25
002EEE26 2019-04-14 15:25:56 21.7 18 25
002EEE26 2019-04-14 14:51:38 21.7 18 24.9
002EEE26 2019-04-14 14:17:20 21.7 18 24.9
002EEE26 2019-04-14 13:43:03 21.7 18 25
002EEE26 2019-04-14 13:08:46 21.7 18 25
002EEE26 2019-04-14 12:34:28 21.7 18 24.9
002EEE26 2019-04-14 12:00:09 21.7 18 25
002EEE26 2019-04-14 11:25:51 21.7 18 24.9
002EEE26 2019-04-14 10:51:33 21.7 18 24.9
002EEE26 2019-04-14 10:17:16 21.7 18 24.9
002EEE26 2019-04-14 09:42:57 21.7 18 25.2
002EEE26 2019-04-14 09:08:39 21.7 18 25.2
002EEE26 2019-04-14 08:34:21 21.7 18 25.2
002EEE26 2019-04-14 08:00:03 21.7 18 25.1
002EEE26 2019-04-14 07:25:44 21.7 18 25.2
002EEE26 2019-04-14 06:51:26 21.7 17 25.2
002EEE26 2019-04-14 06:17:08 21.7 17 25.2
002EEE26 2019-04-14 05:42:51 21.7 17 25.3
002EEE26 2019-04-14 05:08:33 21.7 17 25.4
002EEE26 2019-04-14 04:34:15 21.6 17 25.4
002EEE26 2019-04-14 03:59:58 21.7 17 25.6
002EEE26 2019-04-14 03:25:40 21.7 17 25.4
002EEE26 2019-04-14 02:51:23 21.7 18 25.6
002EEE26 2019-04-14 02:17:05 21.7 18 25.6
002EEE26 2019-04-14 01:42:48 21.7 18 25.2
002EEE26 2019-04-14 01:08:31 21.7 18 25.3
002EEE26 2019-04-14 00:34:14 21.7 18 25.4
002EEE26 2019-04-13 23:59:56 21.8 17 25.3
002EEE26 2019-04-13 23:25:38 21.8 17 25.4
002EEE26 2019-04-13 22:51:21 21.9 17 25.4
002EEE26 2019-04-13 22:17:03 21.9 17 25.5
002EEE26 2019-04-13 21:42:44 21.9 17 25.5
002EEE26 2019-04-13 21:08:24 21.9 17 25.5
002EEE26 2019-04-13 20:34:05 21.9 17 25.5
002EEE26 2019-04-13 19:59:47 21.9 17 25.5
002EEE26 2019-04-13 19:25:28 21.9 17 25.4
002EEE26 2019-04-13 18:51:08 21.9 17 25.4
002EEE26 2019-04-13 18:16:50 21.9 17 25.4
002EEE26 2019-04-13 17:42:31 21.9 17 25.3
002EEE26 2019-04-13 17:08:10 22.1 17 25.3
002EEE26 2019-04-13 16:33:51 22.1 17 25.3
002EEE26 2019-04-13 15:59:32 22.1 18 25.4
002EEE26 2019-04-13 15:25:12 22.1 17 25.3
002EEE26 2019-04-13 14:50:53 22.1 17 25.2
002EEE26 2019-04-13 14:16:34 22.1 17 25.2
002EEE26 2019-04-13 13:42:14 22.1 17 24.7
002EEE26 2019-04-13 13:07:54 22.1 17 25
002EEE26 2019-04-13 12:33:36 22.1 17 24.9
002EEE26 2019-04-13 11:59:17 22.1 18 24.8
002EEE26 2019-04-13 11:25:00 22.1 18 24.7
002EEE26 2019-04-13 10:50:40 22.1 18 24.7
002EEE26 2019-04-13 10:16:21 22.1 17 24.7
002EEE26 2019-04-13 09:42:01 22.1 17 24.8
002EEE26 2019-04-13 09:07:43 22.1 17 24.6
002EEE26 2019-04-13 08:33:24 22.1 17 24.5
002EEE26 2019-04-13 07:59:06 22.1 17 24.6
002EEE26 2019-04-13 07:24:47 22.1 17 24.6
002EEE26 2019-04-13 06:50:27 22.1 17 24.7
002EEE26 2019-04-13 06:16:09 22.1 17 24.7
002EEE26 2019-04-13 05:41:50 22.1 17 24.5
002EEE26 2019-04-13 05:07:32 22.1 17 24.5
002EEE26 2019-04-13 04:33:13 22.1 17 24.9
002EEE26 2019-04-13 03:58:54 22.1 17 25.3
002EEE26 2019-04-13 03:24:34 22.1 17 25.2
002EEE26 2019-04-13 02:50:15 22.2 17 25.2
002EEE26 2019-04-13 02:15:56 22.1 17 25.3
002EEE26 2019-04-13 01:41:37 22.3 18 25.2
002EEE26 2019-04-13 01:07:18 22.3 18 25.3
002EEE26 2019-04-13 00:32:59 22.3 18 25.4
002EEE26 2019-04-12 23:58:39 22.3 18 25.4
002EEE26 2019-04-12 23:24:20 22.3 18 25.5
002EEE26 2019-04-12 22:50:02 22.3 18 25.4
002EEE26 2019-04-12 22:15:43 22.5 18 25.5
002EEE26 2019-04-12 21:41:23 22.5 18 25.5
002EEE26 2019-04-12 21:07:04 22.5 18 25.7
002EEE26 2019-04-12 20:32:44 22.5 18 25.8
002EEE26 2019-04-12 19:58:25 22.5 18 25.7
002EEE26 2019-04-12 19:24:05 22.5 17 25.9
002EEE26 2019-04-12 18:49:45 22.5 17 26.1
002EEE26 2019-04-12 18:15:25 22.7 16 26.4
002EEE26 2019-04-12 17:41:05 22.9 17 26.3
002EEE26 2019-04-12 17:06:45 22.9 17 26.4
002EEE26 2019-04-12 16:32:26 22.9 18 26.6
002EEE26 2019-04-12 15:58:07 22.9 18 27
002EEE26 2019-04-12 15:23:47 22.8 18 27.7
002EEE26 2019-04-12 14:49:29 22.7 18 28.6
002EEE26 2019-04-12 14:15:09 22.4 18 27.6
002EEE26 2019-04-12 13:40:48 21.9 19 21.8
002EEE26 2019-04-12 13:06:28 20.7 22 0